Regional Weather Roundup
Issued by NWS Goodland, KS

Home | Current Version | Previous Version | Text Only | Print | Product List | Glossary On
Versions: 1 2 3 4 5 6 7 8 9 10 11 12 13 14 15 16 17 18 19 20 21 22 23 24 25 26 27 28 29 30 31 32 33 34 35 36 37 38 39 40 41 42 43 44 45 46 47 48 49 50
634
ASUS43 KGLD 260059
RWRGLD

GOODLAND FORECAST AREA HOURLY WEATHER ROUNDUP
NATIONAL WEATHER SERVICE GOODLAND KS
700 PM MDT TUE APR 25 2017

...OFFICIAL OBSERVATIONS...

CITY           SKY/WX    TMP DP  RH WIND       PRES   REMARKS
GOODLAND KS    MOCLDY    51  41  68 NE16      29.61R
HILL CITY KS   CLOUDY    47  41  80 NE13      29.64R
IMPERIAL NEB   CLOUDY    42  35  76 NE18      29.70R
MCCOOK NEB     CLOUDY    44  38  79 N14       29.69R
AKRON CO       CLOUDY    44  38  79 NE24G36   29.67R
BURLINGTON CO  NOT AVBL
LIMON CO       CLOUDY    43  38  82 CALM      29.64R
$$

...UNOFFICIAL OBSERVATIONS...

CITY           SKY/WX    TMP DP  RH WIND       PRES   REMARKS
LENORA KS        N/A     45  32  60 MISG        N/A
NORTON KS      CLOUDY    45  36  70 N14G23    29.65R
SHARON SPRINGS   N/A     54  45  71 NE15        N/A
TRENTON NEB      N/A     43  32  65 N9          N/A
KIT CARSON CO    N/A     46  41  84 MISG        N/A
YUMA CO        CLOUDY    43  39  87 NE17      29.66R
$$




USA.gov is the U.S. government's official web portal to all federal, state and local government web resources and services.